Location: Avon School (historical)
(37.7514°N, 90.2201°W)
Time: 17:54:30
(UTC+00:00)

Explorer 7 - All Passes

Search period start: 13 November 2024 00:00
Search period end: 23 November 2024 00:00
Orbit: 457 x 601 km, 50.3° (Epoch: 13 November)

Date Brightness Start Highest point End Pass type
(mag) Time Alt. Az. Time Alt. Az. Time Alt. Az.
13 Nov - 07:48:48 10° S 07:51:50 23° SE 07:54:59 10° ENE night (unlit)
13 Nov - 09:27:09 10° WSW 09:30:56 48° NNW 09:34:55 10° NE visible
13 Nov - 11:08:21 10° NW 11:11:06 17° NNW 11:13:57 10° NNE visible
13 Nov - 12:49:08 10° NNW 12:51:48 16° N 12:54:31 10° NE daylight
13 Nov - 14:28:08 10° NW 14:32:09 36° NNE 14:36:16 10° E daylight
13 Nov - 16:07:27 10° WNW 16:11:38 43° SW 16:15:52 10° SSE daylight
14 Nov - 07:36:11 10° SSW 07:39:26 28° SE 07:42:52 10° ENE night (unlit)
14 Nov - 09:14:58 10° WSW 09:18:40 41° NNW 09:22:34 10° NE visible
14 Nov - 10:56:19 10° NW 10:58:55 16° N 11:01:36 10° NNE visible
14 Nov - 12:36:51 10° NNW 12:39:37 17° N 12:42:25 10° NE daylight
14 Nov - 14:15:47 10° NW 14:19:53 41° NNE 14:24:05 10° E daylight
14 Nov - 15:55:15 10° WNW 15:59:15 35° SW 16:03:19 10° SSE daylight
15 Nov - 07:23:36 10° SSW 07:27:02 35° SE 07:30:39 10° ENE night (unlit)
15 Nov - 09:02:48 10° W 09:06:23 35° NNW 09:10:08 10° NE visible
15 Nov - 10:44:15 10° NW 10:46:43 15° N 10:49:14 10° NNE visible
15 Nov - 12:24:32 10° NNW 12:27:23 17° NNE 12:30:19 10° NE daylight
15 Nov - 14:03:23 10° NW 14:07:34 48° NNE 14:11:50 10° ESE daylight
15 Nov - 15:43:02 10° WNW 15:46:50 29° SW 15:50:40 10° SSE daylight
16 Nov - 07:11:04 10° SSW 07:14:38 43° SE 07:18:22 10° ENE night (unlit)
16 Nov - 08:50:38 10° W 08:54:05 30° NNW 08:57:42 10° NE night (unlit)
16 Nov - 10:32:09 10° NW 10:34:29 15° N 10:36:52 10° NNE visible
16 Nov - 12:12:09 10° NNW 12:15:08 18° NNE 12:18:11 10° ENE visible
16 Nov - 13:50:59 10° NW 13:55:12 56° NE 13:59:33 10° ESE daylight
16 Nov - 15:30:52 10° WNW 15:34:23 24° SW 15:37:56 10° S daylight
17 Nov - 06:58:33 10° SW 07:02:12 55° SE 07:06:02 10° ENE night (unlit)
17 Nov - 08:38:27 10° W 08:41:46 26° NNW 08:45:13 10° NE night (unlit)
17 Nov - 10:19:58 10° NW 10:22:13 14° N 10:24:30 10° NNE visible
17 Nov - 11:59:44 10° NNW 12:02:50 20° NNE 12:06:01 10° ENE visible
17 Nov - 13:38:33 10° NW 13:42:48 67° NE 13:47:11 10° ESE daylight
17 Nov - 15:18:45 10° W 15:21:53 19° SW 15:25:03 10° S daylight
18 Nov - 06:46:04 10° SW 06:49:45 69° SE 06:53:38 10° ENE night (unlit)
18 Nov - 08:26:17 10° WNW 08:29:26 23° NNW 08:32:43 10° NNE night (unlit)
18 Nov - 10:07:46 10° NNW 10:09:56 14° N 10:12:08 10° NNE visible
18 Nov - 11:47:16 10° NNW 11:50:30 21° NNE 11:53:49 10° ENE visible
18 Nov - 13:26:07 10° NW 13:30:23 80° NE 13:34:47 10° SE daylight
18 Nov - 15:06:44 10° W 15:09:22 16° SW 15:12:02 10° SSW daylight
19 Nov - 06:33:36 10° SW 06:37:18 86° SSE 06:41:12 10° NE night (unlit)
19 Nov - 08:14:05 10° WNW 08:17:04 21° NNW 08:20:11 10° NNE night (unlit)
19 Nov - 09:55:30 10° NNW 09:57:38 14° N 09:59:47 10° NNE visible
19 Nov - 11:34:47 10° NNW 11:38:08 23° NNE 11:41:36 10° ENE visible
19 Nov - 13:13:40 10° NW 13:17:55 86° SW 13:22:18 10° SE daylight
19 Nov - 14:54:54 10° WSW 14:56:48 13° SW 14:58:43 10° SSW daylight
20 Nov - 04:44:33 10° SSE 04:46:03 12° SE 04:47:34 10° ESE night (unlit)
20 Nov - 06:21:09 10° WSW 06:24:50 77° NW 06:28:43 10° NE night (unlit)
20 Nov - 08:01:53 10° WNW 08:04:42 19° NNW 08:07:37 10° NNE night (unlit)
20 Nov - 09:43:10 10° NNW 09:45:17 14° N 09:47:27 10° NE visible
20 Nov - 11:22:15 10° NW 11:25:44 25° NNE 11:29:20 10° E visible
20 Nov - 13:01:12 10° WNW 13:05:24 71° SW 13:09:46 10° SE daylight
21 Nov - 04:31:16 10° SSE 04:33:27 15° SE 04:35:41 10° E night (unlit)
21 Nov - 06:08:42 10° WSW 06:12:21 62° NW 06:16:11 10° NE night (unlit)
21 Nov - 07:49:41 10° WNW 07:52:19 17° NNW 07:55:02 10° NNE night (unlit)
21 Nov - 09:30:46 10° NNW 09:32:55 14° N 09:35:07 10° NE visible
21 Nov - 11:09:42 10° NW 11:13:18 28° NNE 11:17:01 10° E visible
21 Nov - 12:48:44 10° WNW 12:52:52 58° SW 12:57:09 10° SE daylight
22 Nov - 04:18:14 10° S 04:20:51 19° SE 04:23:32 10° E night (unlit)
22 Nov - 05:56:16 10° WSW 05:59:51 51° NNW 06:03:36 10° NE night (unlit)
22 Nov - 07:37:27 10° NW 07:39:55 16° NNW 07:42:26 10° NNE night (unlit)
22 Nov - 09:18:19 10° NNW 09:20:31 14° N 09:22:47 10° NE visible
22 Nov - 10:57:08 10° NW 11:00:49 32° NNE 11:04:40 10° E visible
22 Nov - 12:36:17 10° WNW 12:40:18 47° SW 12:44:28 10° SSE daylight
